This is the latest recevied weather packets stored in our database for station/object IK1PCD-11. If no packets are shown the sender has not sent any weather packets the latest 10 day(s).
| Time | Temp. | Humidity | Pressure | Rain* | Wind** | Luminosity | Snow |
|---|---|---|---|---|---|---|---|
| 1787597748 | 16.67° C | 100% | 1017.8 hPa | - | - | - | - |
| 1787596848 | 16.11° C | 100% | 1018.2 hPa | - | - | - | - |
| 1787595948 | 17.78° C | 100% | 1018 hPa | - | - | - | - |
| 1787595048 | 17.78° C | 100% | 1017.4 hPa | - | - | - | - |
| 1787594148 | 18.33° C | 100% | 1017.7 hPa | - | - | - | - |
| 1787593248 | 18.89° C | 100% | 1018.1 hPa | - | - | - | - |
| 1787592348 | 18.89° C | 100% | 1018.7 hPa | - | - | - | - |
| 1787591447 | 19.44° C | 100% | 1019.1 hPa | - | - | - | - |
| 1787587847 | 21.67° C | 100% | 1019 hPa | - | - | - | - |
| 1787586946 | 22.22° C | 100% | 1019.1 hPa | - | - | - | - |
| 1787586055 | 22.78° C | 100% | 1019.2 hPa | - | - | - | - |
| 1787585155 | 22.78° C | 100% | 1019.3 hPa | - | - | - | - |
| 1787584255 | 22.78° C | 100% | 1019.6 hPa | - | - | - | - |
| 1787583355 | 23.33° C | 100% | 1019.5 hPa | - | - | - | - |
| 1787582454 | 23.89° C | 100% | 1019.4 hPa | - | - | - | - |
| 1787581554 | 23.33° C | 100% | 1019.5 hPa | - | - | - | - |
| 1787580654 | 23.33° C | 100% | 1019.7 hPa | - | - | - | - |
| 1787579754 | 24.44° C | 100% | 1019.9 hPa | - | - | - | - |
| 1787578854 | 23.89° C | 100% | 1019.9 hPa | - | - | - | - |
| 1787577954 | 24.44° C | 100% | 1019.9 hPa | - | - | - | - |
| 1787577054 | 23.89° C | 100% | 1019.9 hPa | - | - | - | - |
| 1787576154 | 24.44° C | 100% | 1020 hPa | - | - | - | - |
| 1787573455 | 23.89° C | 100% | 1020.3 hPa | - | - | - | - |
| 1787572553 | 24.44° C | 100% | 1020.5 hPa | - | - | - | - |
| 1787571653 | 22.22° C | 100% | 1020.9 hPa | - | - | - | - |
* Rain since midnight (hover to see other rain measurements)
** Current wind speed in m/s (hover to see current wind gust speed)